Location: Pian di Sc�
(43.6333°N, 11.5500°E)
Time: 18:01:53
(UTC+00:00)

Uosat 12 SS-18 rocket - Pass Details

Date: 07 August 2020
Orbit: 602 x 1382 km, 64.6° (Epoch: 17 September)

Event Time Altitude Azimuth Distance (km) Brightness Sun altitude
Exits shadow 00:48:34 69° 84° (E) 757 4.4 -26.7°
Drops below altitude 10° 00:52:46 10° 39° (NE) 2,052 7.7 -26.4°
Sets 00:54:54 0° 37° (NE) 2,915 8.8 -26.2°
